Norfolk NAS, VA

6:52 AM EDT on October 17, 2019 (GMT -0400)
Norfolk Naval Station / Chambers Field

Weather History for KNGU - September, 2019

Change the Weather History Date:

Monday, September 16, 2019

  Actual Average Record
Temperature  
Mean Temperature 76 °F -  
Max Temperature 82 °F 77 °F 91 °F (2010)
Min Temperature 69 °F 64 °F 59 °F (2015)
Cooling Degree Days 10    
Growing Degree Days 26 (Base 50)    
Moisture  
Dew Point 70 °F    
Average Humidity 84    
Maximum Humidity 100    
Minimum Humidity 53    
Precipitation  
Precipitation 0.00 in - - ()
Sea Level Pressure  
Sea Level Pressure 30.05 in    
Wind  
Wind Speed 3 mph (NE)    
Max Wind Speed 9 mph    
Max Gust Speed -    
Visibility 10 miles    
Events      
Averages and records for this station are not official NWS values.
T = Trace of Precipitation, MM = Missing Value Source: NWS Daily Summary

Daily Weather History Graph

Daily Weather History Graph

Search for Another Location

Airport or City:

Astronomy

Sep. 16, 2019 Rise Set
Actual Time 6:47 AM EDT 7:11 PM EDT
Civil Twilight 6:21 AM EDT 7:37 PM EDT
Nautical Twilight 5:51 AM EDT 8:07 PM EDT
Astronomical Twilight 5:20 AM EDT 8:39 PM EDT
Moon 8:48 PM EDT (9/16) 8:50 AM EDT (9/16)
Length of Visible Light 13h 15m
Length of Day
12h 23m
Waning Gibbous, 94% of the Moon is Illuminated
Sep 16
Waning Gibbous
Sep 21
Last Quarter
Sep 28
New
Oct 5
First Quarter
Oct 13
Full

Hourly Weather History & Observations

Time (EDT) Temp. Heat Index Dew Point Humidity Pressure Visibility Wind Dir Wind Speed Gust Speed Precip Events Conditions
12:59 AM 71.1 °F - 70.0 °F 96% 30.09 in 9.0 mi Calm Calm - N/A   Clear
1:59 AM 69.1 °F - 69.1 °F 100% 30.09 in 8.0 mi Calm Calm - N/A   Clear
2:59 AM 70.0 °F - 70.0 °F 100% 30.07 in 10.0 mi Calm Calm - N/A   Clear
3:59 AM 69.1 °F - 69.1 °F 100% 30.07 in 9.0 mi Calm Calm - N/A   Clear
4:59 AM 73.0 °F - 72.0 °F 96% 30.06 in 10.0 mi North 3.5 mph - N/A   Partly Cloudy
5:59 AM 73.0 °F - 71.1 °F 93% 30.07 in 10.0 mi NNW 4.6 mph - N/A   Partly Cloudy
6:59 AM 70.0 °F - 70.0 °F 100% 30.07 in 9.0 mi Calm Calm - N/A   Partly Cloudy
7:59 AM 75.9 °F - 73.0 °F 91% 30.08 in 9.0 mi North 4.6 mph - N/A   Scattered Clouds
8:37 AM 75.9 °F - 73.9 °F 94% 30.09 in 9.0 mi North 5.8 mph - N/A   Mostly Cloudy
8:49 AM 77.0 °F - 73.9 °F 90% 30.09 in 8.0 mi North 6.9 mph - N/A   Mostly Cloudy
8:59 AM 77.0 °F - 75.0 °F 94% 30.09 in 9.0 mi North 6.9 mph - N/A   Mostly Cloudy
9:21 AM 77.0 °F - 73.9 °F 90% 30.09 in 9.0 mi North 5.8 mph - N/A   Mostly Cloudy
9:59 AM 77.0 °F - 73.0 °F 88% 30.09 in 9.0 mi North 8.1 mph - N/A   Mostly Cloudy
10:59 AM 79.0 °F - 72.0 °F 79% 30.09 in 9.0 mi North 8.1 mph - N/A   Mostly Cloudy
11:59 AM 80.1 °F 83.8 °F 72.0 °F 76% 30.08 in 10.0 mi NE 6.9 mph - N/A   Scattered Clouds
12:59 PM 81.0 °F 84.9 °F 71.1 °F 72% 30.07 in 10.0 mi NE 6.9 mph - N/A   Scattered Clouds
1:59 PM 82.0 °F 86.7 °F 72.0 °F 71% 30.04 in 10.0 mi ENE 5.8 mph - N/A   Partly Cloudy
2:59 PM 82.0 °F 84.1 °F 66.0 °F 58% 30.03 in 10.0 mi East 9.2 mph - N/A   Partly Cloudy
3:59 PM 82.9 °F 84.4 °F 64.0 °F 53% 30.00 in 10.0 mi ENE 8.1 mph - N/A   Scattered Clouds
4:59 PM 82.0 °F 83.8 °F 64.9 °F 56% 29.99 in 10.0 mi ENE 6.9 mph - N/A   Scattered Clouds
5:59 PM 81.0 °F 84.4 °F 70.0 °F 69% 29.99 in 10.0 mi East 6.9 mph - N/A   Partly Cloudy
6:59 PM 78.1 °F - 70.0 °F 76% 29.99 in 10.0 mi East 5.8 mph - N/A   Clear
7:59 PM 75.0 °F - 66.9 °F 76% 29.99 in 10.0 mi ESE 4.6 mph - N/A   Partly Cloudy
8:59 PM 73.0 °F - 68.0 °F 84% 30.00 in 10.0 mi SE 5.8 mph - N/A   Partly Cloudy
9:59 PM 73.0 °F - 70.0 °F 90% 30.00 in 10.0 mi SE 4.6 mph - N/A   Partly Cloudy
10:59 PM 72.0 °F - 69.1 °F 91% 29.99 in 10.0 mi Calm Calm - N/A   Partly Cloudy
11:59 PM 71.1 °F - 69.1 °F 93% 29.99 in 10.0 mi ESE 4.6 mph - N/A   Partly Cloudy